Weather Roundup
Issued by NWS

Home | Current Version | Previous Version | Text Only | Print | Product List | Glossary On
Versions: 1 2 3 4 5 6 7 8 9 10 11 12 13 14 15 16 17 18 19 20 21 22 23 24 25 26 27 28 29 30 31 32 33 34 35 36 37 38 39 40 41 42 43 44 45 46 47 48 49 50
000
NZUS93 KARX 280159
HRRWXR

CURRENT HOURLY OBSERVATIONS ACROSS
MUCH OF THE UPPER MISSISSIPPI VALLEY
NATIONAL WEATHER SERVICE LA CROSSE WI
900 PM CDT THU AUG 27 2015


...SOUTHEAST MINNESOTA...


CITY           SKY/WX    TMP DP  RH WIND       PRES   REMARKS
ROCHESTER      CLOUDY    64  59  83 SE7       30.05F
ROCHESTER/MAYO FAIR      66  59  78 SE7       30.05S
WINONA         PTCLDY    70  61  73 SE3       30.05F
AUSTIN         CLOUDY    66  61  82 SE5       30.03S
ALBERT LEA     CLOUDY    66  61  82 S6        30.03R
DODGE CENTER   CLOUDY    63  59  88 SE3       30.05R
PRESTON        CLOUDY    65  58  78 SE3       30.07S
OWATONNA       DRIZZLE   64  61  88 SE7       30.02F
FARIBAULT      CLOUDY    64  61  88 SE7       30.02S
$$

...ELSEWHERE IN MINNESOTA...


CITY           SKY/WX    TMP DP  RH WIND       PRES   REMARKS
MINNEAPOLIS    CLOUDY    68  59  73 SE8       30.01S
INTNL FALLS    MOCLDY    63  59  87 CALM      29.94S
DULUTH         PTCLDY    58  53  84 E5        30.01R
RED WING       MOCLDY    66  59  77 SE3       30.02S
REDWOOD FALLS  CLOUDY    67  64  90 E5        29.95F
MANKATO        CLOUDY    64  59  82 SE9       29.99F
WORTHINGTON    CLOUDY    64  61  88 SE8       30.00R
FAIRMONT       CLOUDY    64  57  77 S13       30.01S
$$

...SOUTHWEST WISCONSIN...


CITY           SKY/WX    TMP DP  RH WIND       PRES   REMARKS
LA CROSSE      PTCLDY    70  61  73 S7        30.07R
PRAIRIE DU CHI MOCLDY    68  57  66 CALM      30.08R
BOSCOBEL       MOCLDY    66  59  78 NW3       30.09R
LONE ROCK      NOT AVBL
PLATTEVILLE    PTCLDY    64  61  90 SE6       30.11S
FORT MC COY    MOCLDY    64  57  78 CALM      30.08R
VIROQUA        FAIR      64  59  84 S3        30.10R
WIS DELLS      MOCLDY    64  57  78 S5        30.10F
$$

...ELSEWHERE IN WISCONSIN...


CITY           SKY/WX    TMP DP  RH WIND       PRES   REMARKS
MILWAUKEE      CLOUDY    63  55  75 S6        30.14R
MADISON        MOCLDY    67  57  70 S7        30.11S
GREEN BAY      CLEAR     61  57  87 S7        30.10S
EAU CLAIRE     CLOUDY    67  58  72 S5        30.05R
BLACK RVR FLS  MOCLDY    62  60  95 CALM      30.07R
MEDFORD        PTCLDY    60  58  95 S3        30.08S
WAUSAU         CLOUDY    67  58  72 S5        30.07S
WIS RAPIDS     MOCLDY    64  56  75 CALM      30.10S
MARSHFIELD     MOCLDY    64  57  78 S3        30.09S
RICE LAKE      CLOUDY    65  59  79 SE6       30.06R
$$

...NORTHEAST IOWA...


CITY           SKY/WX    TMP DP  RH WIND       PRES   REMARKS
DECORAH        CLOUDY    66  61  82 CALM      30.07S
MASON CITY     MOCLDY    64  60  87 E6        30.07R
CHARLES CITY   CLOUDY    63  63 100 E7        30.07R
OELWEIN        CLOUDY    64  61  88 CALM      30.07R
$$

...ELSEWHERE IN IOWA...


CITY           SKY/WX    TMP DP  RH WIND       PRES   REMARKS
DES MOINES     MOCLDY    70  60  70 SE13      30.00F
IOWA CITY      PTCLDY    66  59  78 SE7       30.08R
FORT DODGE     CLOUDY    64  59  82 E8        30.02S
$$

...NORTHERN ILLINOIS...


CITY           SKY/WX    TMP DP  RH WIND       PRES   REMARKS
CHICAGO-OHARE  MOCLDY    66  55  67 E6        30.12S
CHICAGO-MIDWAY PTCLDY    68  56  65 E8        30.12S
MOLINE         CLEAR     63  59  87 CALM      30.09F
ROCKFORD       MOCLDY    64  56  75 CALM      30.14R
PEORIA         CLEAR     66  58  75 CALM      30.11R
$$

NOTE: "FAIR" INDICATES FEW OR NO CLOUDS BELOW 12,000 FEET WITH NO
SIGNIFICANT WEATHER AND/OR OBSTRUCTIONS TO VISIBILITY. WIND
SPEEDS ARE IN MILES-PER-HOUR.



USA.gov is the U.S. government's official web portal to all federal, state and local government web resources and services.